Tracking 23610 objects as of 19-Sep-2021
HD Live streaming from Space Station
objects crossing your sky now

SL-8 DEB

Track SL-8 DEB now!
10-day predictions


NORAD ID: 1392
Int'l Code: 1965-020AH
Perigee: 495.3 km
Apogee: 980.9 km
Inclination: 55.9 °
Period: 99.4 minutes
Semi major axis: 7109 km
RCS: 0.2042 m2 (medium)
Launch date: March 15, 1965
Source: Commonwealth of Independent States (former USSR) (CIS)
Launch site: TYURATAM MISSILE AND SPACE COMPLEX (TTMTR)

Note: This is SATELLITE DEBRIS
aabbcc
Your satellite tracking list
Your tracking list is empty




NASA's NSSDC Master Catalog

Two Line Element Set (TLE):
1 01392U 65020AH  21261.53527687 -.00000025  00000-0  30300-4 0  9991
2 01392  55.8794 263.5378 0341495 137.6017 225.1916 14.48374769841170
Source of the keplerian elements: AFSPC